Temperature
16 15 15 15 15 14 14 14 13 13 13 13 13 13 13 12 12 12 12 12 12 12 12 12 12 12 12 12 12 12 12 12 11 11 11 11 11 11 11 11 11 11 11
15 15 15 15 14 14 14 13 13 13 13 13 12 12 12 12 12 12 12 12 12 12 12 12 12 12 12 12 12 12 11 11 11 11 11 11 11 11 11 11 11 11 11
15 15 14 14 14 14 13 13 13 13 13 12 12 12 12 12 12 12 12 12 12 12 11 11 11 11 11 11 11 11 11 11 11 11 11 11 11 10 10 10 10 10 10
15 14 14 14 14 13 13 13 13 12 12 12 12 12 12 11 11 11 11 11 11 11 11 11 11 11 11 11 11 11 11 11 11 11 11 10 10 10 10 10 10 10 10
15 14 14 13 13 13 13 13 12 12 12 12 12 11 11 11 11 11 11 11 11 11 11 11 11 11 11 11 11 11 11 11 11 10 10 10 10 10 10 10 10 10 10
14 14 13 13 13 13 12 12 12 11 11 11 11 11 11 11 11 11 11 11 10 10 10 10 10 10 10 10 10 10 10 10 10 10 10 10 10 9 9 9 9 9 9
14 14 13 13 12 12 12 11 11 11 11 11 11 11 11 11 10 10 10 10 10 10 10 10 10 10 10 10 10 10 10 10 10 10 10 10 9 9 9 9 9 9 9
14 13 13 12 12 12 11 11 11 11 10 10 10 10 10 10 10 10 10 10 10 10 10 10 10 10 10 10 9 9 9 9 9 9 9 9 9 9 9 9 9 9 9
13 13 12 12 12 11 11 11 11 10 10 10 10 9 10 10 10 9 9 9 9 9 9 9 9 9 9 9 9 9 9 9 9 9 9 9 9 9 9 8 8 8 8
13 12 12 12 12 11 11 11 10 10 10 9 9 9 9 9 9 9 9 9 9 9 9 9 9 9 8 8 8 9 9 9 9 9 9 9 8 8 8 8 8 8 8
12 12 12 11 11 11 11 10 10 10 9 9 9 9 9 9 9 9 8 8 8 8 8 8 8 8 8 8 8 8 8 8 8 8 8 8 8 8 8 8 8 7 7
12 12 11 11 11 10 10 10 9 9 9 9 8 8 8 8 8 8 8 8 8 7 7 8 8 8 8 8 8 8 8 7 8 8 8 8 8 8 8 7 7 7 7
11 11 11 10 10 10 10 9 9 9 8 8 8 8 8 8 8 7 7 7 7 7 7 7 7 7 7 7 7 7 7 7 7 7 7 7 7 7 7 7 7 7 7
11 11 10 10 10 9 9 9 8 8 8 8 7 7 7 7 7 7 7 7 7 7 7 7 7 7 7 7 7 7 6 6 6 7 7 7 7 7 7 7 6 6 6
10 10 10 9 9 9 9 8 8 8 8 8 7 7 7 7 7 7 6 6 6 6 6 6 6 6 6 6 6 6 6 6 6 6 6 6 6 6 6 6 6 6 6
10 9 9 9 8 8 8 8 8 8 7 7 7 7 7 6 6 6 6 6 6 6 5 5 5 5 5 5 5 5 5 5 5 5 6 5 6 6 6 6 5 5 5
9 9 9 8 8 8 8 8 7 7 7 7 6 6 6 6 6 6 5 5 5 5 5 5 5 5 5 5 5 5 5 5 5 5 5 5 5 5 5 5 5 5 5
8 8 8 8 8 7 7 7 7 7 6 6 6 6 6 5 5 5 5 5 5 4 4 4 4 4 4 4 4 4 4 4 4 4 4 4 4 4 4 4 4 4 4
8 8 7 7 7 7 7 6 6 6 6 6 6 5 5 5 5 5 4 4 4 4 4 4 4 4 4 4 4 4 4 4 4 4 4 4 4 4 4 4 4 4 3
7 7 7 7 6 6 6 6 6 5 5 5 5 5 4 4 4 4 4 4 4 4 3 3 3 3 3 3 3 3 3 3 3 3 3 3 3 3 3 3 3 3 3
7 6 6 6 6 6 5 5 5 5 5 5 4 4 4 4 3 3 3 3 3 3 3 3 3 3 3 3 3 3 3 3 2 3 3 2 2 2 2 2 2 2 2
6 6 6 5 5 5 5 5 4 4 4 4 4 3 3 3 3 3 3 3 3 2 2 2 2 2 2 2 2 2 2 2 2 2 2 2 2 2 2 2 2 2 2
6 5 5 5 5 5 4 4 4 4 3 3 3 3 3 3 2 2 2 2 2 2 2 2 2 2 2 2 2 2 2 2 2 2 1 1 1 1 1 1 1 1 1
5 5 5 5 4 4 4 3 3 3 3 3 2 2 2 2 2 2 2 1 1 1 1 1 1 1 1 1 1 1 1 1 1 1 1 1 1 1 1 1 1 0 0
4 4 4 4 4 3 3 3 3 3 2 2 2 2 2 2 1 1 1 1 1 1 1 1 1 1 1 1 1 1 0 1 1 0 0 0 0 0 0 0 -0 -0 -0
4 4 4 3 3 3 3 2 2 2 2 2 1 1 1 1 1 1 1 1 0 0 0 0 0 0 0 0 -0 -0 0 0 0 0 0 -0 -0 -0 -0 -1 -1 -1 -1
Wind_Speed
5 4 4 3 3 3 2 2 1 1 1 2 2 1 1 0 0 1 1 1 1 1 1 1 1 1 0 1 1 1 2 2 2 2 2 1 0 1 1 1 1 1 2
5 4 4 4 3 3 2 2 1 1 1 1 1 1 1 1 1 1 2 1 2 2 2 2 2 1 1 1 1 1 2 2 2 2 2 1 1 1 1 1 1 1 2
5 5 4 3 3 3 2 2 1 1 1 1 1 1 1 1 1 1 2 2 3 3 3 3 3 2 2 1 2 2 1 1 1 2 1 1 1 1 1 1 1 2 2
5 5 5 4 4 3 2 2 2 1 1 1 1 1 1 1 1 1 1 1 2 2 2 2 3 3 4 3 2 3 2 2 1 2 1 1 1 1 0 1 1 2 2
5 4 4 4 3 2 2 2 1 1 1 1 1 0 1 1 1 1 1 1 1 1 2 2 2 3 4 4 3 3 3 2 2 2 1 1 1 0 1 1 1 1 2
5 4 4 3 3 3 2 2 2 1 1 1 1 1 1 2 2 2 1 1 1 1 2 2 2 2 2 2 3 4 5 5 4 3 2 3 3 2 1 1 1 0 2
4 4 3 4 3 3 3 2 2 2 1 1 1 1 2 3 3 2 2 1 1 2 2 2 2 2 1 1 1 1 3 4 6 5 4 4 4 4 3 2 2 2 3
4 3 4 4 4 3 3 2 2 2 2 2 2 2 2 3 3 2 1 1 1 2 2 2 2 2 2 2 2 1 2 3 4 4 5 5 5 4 5 4 4 2 1
3 4 4 4 4 3 3 3 2 2 2 2 2 1 2 3 3 2 1 1 1 2 3 2 2 2 3 2 2 2 3 3 3 3 4 3 2 3 3 2 1 1 1
4 4 4 5 5 4 4 3 2 2 2 1 1 1 2 3 3 2 1 1 1 2 2 2 3 3 3 3 3 3 3 4 3 2 2 2 2 2 3 4 4 2 1
4 3 3 4 5 4 3 2 2 2 1 1 1 2 2 2 3 1 1 1 2 2 2 2 3 4 4 3 3 3 5 4 2 2 2 1 1 1 2 2 3 4 4
3 3 3 3 3 2 3 2 2 2 2 1 1 2 2 2 2 2 1 1 1 2 2 2 3 3 3 2 2 2 3 2 1 1 1 2 2 2 3 3 3 4 5
3 3 3 2 2 3 3 3 2 2 2 2 2 2 2 2 2 2 1 1 1 1 2 3 3 2 2 2 2 2 1 1 2 2 3 3 3 3 2 1 2 2 2
3 3 3 3 2 2 2 2 2 2 3 3 3 2 2 2 2 1 1 1 1 1 1 1 2 2 2 2 2 2 1 1 2 3 3 3 2 1 1 1 1 1 1
3 2 2 2 2 2 2 2 3 4 4 4 4 3 3 3 4 3 1 1 2 2 1 1 1 1 1 1 1 1 1 1 1 2 2 2 2 1 2 1 1 1 1
2 2 2 2 1 1 1 1 2 2 3 3 3 3 3 3 4 3 3 3 3 2 1 1 2 2 2 2 2 2 1 1 2 2 2 2 2 2 2 1 1 1 2
3 3 2 2 2 2 1 1 1 3 4 2 2 3 3 3 3 3 3 3 2 1 1 2 3 3 3 3 2 2 2 2 2 2 2 2 2 2 2 2 2 2 2
3 3 2 3 3 2 2 2 2 1 2 2 3 3 2 2 2 2 1 1 1 1 1 2 3 3 3 3 3 2 2 2 2 2 2 2 2 2 3 3 3 3 3
2 2 2 2 2 2 2 1 1 1 1 1 2 2 2 2 2 2 1 0 1 2 2 2 2 2 2 2 2 2 2 2 2 2 2 2 2 2 3 3 3 4 3
2 2 2 2 2 2 2 1 1 1 1 1 2 1 1 1 1 1 1 1 2 2 2 2 2 2 2 2 2 2 2 2 2 2 2 2 2 3 3 3 3 3 3
2 2 2 2 2 2 2 2 2 2 2 2 2 2 1 1 2 3 2 2 2 3 3 3 2 2 2 2 2 2 2 2 2 2 2 2 2 3 3 3 3 3 3
2 2 2 2 2 2 2 2 2 2 2 2 2 1 1 1 2 2 3 3 3 3 2 2 2 2 2 2 2 2 2 2 2 2 2 2 2 3 3 3 3 3 3
1 2 2 2 2 2 2 2 2 2 2 2 2 1 2 2 2 2 3 3 2 2 2 1 1 2 1 1 1 1 2 3 3 3 3 3 3 3 3 3 3 3 3
1 1 2 2 2 2 2 2 2 2 3 2 2 2 2 3 2 3 2 2 2 2 1 1 2 2 3 2 2 2 3 3 3 3 3 3 3 3 3 3 3 4 4
1 1 1 2 2 2 2 2 3 3 3 3 3 3 2 2 3 2 2 2 2 2 2 2 2 2 3 3 3 3 4 4 4 3 3 3 3 4 4 4 3 3 4
2 2 2 2 2 3 3 3 3 3 3 3 3 3 3 3 3 3 2 2 2 2 2 2 3 3 4 4 4 5 4 4 5 5 3 2 3 3 3 4 4 4 4
Wind_Direction
160 157 148 155 156 150 152 177 201 218 202 181 187 188 200 221 171 143 170 156 166 257 285 202 249 243 244 224 163 143 142 145 185 265 276 279 305 300 340 310 313 306 312
163 153 153 152 143 141 157 183 188 190 206 194 171 172 209 237 208 193 214 195 191 220 242 220 241 227 233 231 187 177 175 174 169 220 279 279 265 246 286 325 333 312 294
157 150 147 150 149 156 171 176 170 165 174 156 141 185 239 248 219 227 217 213 217 227 226 218 234 208 228 230 203 194 191 177 150 169 251 272 276 314 351 326 349 327 314
157 155 161 172 176 178 176 166 170 163 161 166 157 183 229 248 245 242 213 215 224 236 236 229 228 214 220 221 213 201 177 157 146 154 207 267 276 302 42 325 321 321 318
156 164 181 184 177 168 166 167 164 153 171 171 156 266 294 274 272 283 250 224 213 250 267 252 240 234 224 212 207 195 177 173 171 169 205 240 259 287 255 250 256 299 304
160 176 180 173 169 175 179 164 147 144 155 149 202 234 279 289 286 262 252 217 213 219 253 276 280 272 256 225 211 199 186 184 190 188 206 215 228 224 230 231 210 56 293
164 172 173 172 175 183 176 159 168 180 177 208 249 249 265 272 277 263 239 194 202 221 230 245 278 294 294 224 229 264 235 215 200 188 194 214 217 213 197 210 213 199 228
167 175 177 173 178 177 169 178 192 190 190 208 240 253 271 285 287 261 243 188 212 239 235 221 224 256 259 210 200 243 258 250 227 207 205 218 220 208 196 201 213 225 271
178 185 185 177 173 172 182 194 197 193 209 218 227 243 270 291 293 258 249 213 238 260 258 244 227 235 253 223 187 221 260 269 253 226 224 228 221 202 179 138 133 144 269
202 198 188 179 178 183 192 193 192 191 209 220 242 256 257 273 278 253 215 191 231 268 284 274 255 248 250 229 202 206 234 252 246 249 262 270 253 227 191 179 183 189 222
199 183 181 184 187 188 185 182 173 170 175 232 260 284 280 282 279 260 225 210 222 246 262 274 277 275 267 249 232 219 229 231 220 209 224 245 251 239 222 210 195 192 203
166 168 180 185 186 175 170 177 175 168 179 225 252 295 298 291 290 266 272 280 250 235 253 261 273 289 300 285 266 246 238 222 196 194 218 247 250 249 245 234 232 227 226
155 171 185 181 175 171 176 183 185 185 197 221 225 258 285 301 299 285 274 278 278 281 263 266 272 287 309 302 284 277 257 200 192 213 228 237 239 241 243 247 262 258 270
161 173 171 171 182 185 186 184 187 202 210 221 227 237 267 283 287 289 294 296 292 307 294 313 322 320 317 301 306 306 261 215 209 220 234 243 251 252 247 239 245 245 272
160 164 169 183 191 195 202 210 210 218 216 216 221 217 222 253 270 272 263 265 251 243 269 350 357 343 333 320 309 303 286 259 239 232 232 238 246 249 257 256 245 230 235
161 177 184 191 197 189 191 322 324 289 280 251 237 226 237 245 263 269 275 283 275 239 211 236 249 249 245 250 253 265 267 255 249 238 226 223 231 234 245 246 227 228 246
183 193 194 198 202 202 192 195 299 343 349 324 274 250 247 247 253 260 274 299 290 216 206 227 233 234 237 236 240 243 248 257 248 232 232 232 230 236 238 241 235 241 255
184 193 191 201 204 203 208 211 216 234 293 316 311 292 275 257 258 268 296 15 328 291 238 242 244 240 235 233 238 248 249 248 248 242 241 241 235 235 241 243 236 238 248
181 192 197 195 193 193 197 197 208 225 242 279 321 330 338 342 339 321 10 186 244 255 256 264 258 245 238 237 242 242 233 233 245 242 241 246 246 239 243 245 246 247 243
194 196 178 174 177 176 181 187 201 211 227 255 267 266 330 27 339 303 272 264 261 261 259 260 263 258 247 240 247 239 228 233 241 242 243 246 249 244 244 244 246 248 243
193 194 180 169 188 194 193 199 206 206 218 240 255 270 288 221 248 258 260 260 263 263 266 264 260 260 258 254 254 245 237 239 240 242 248 251 253 254 251 245 245 245 245
191 192 193 198 203 202 207 207 208 213 226 240 260 274 274 266 262 264 262 263 265 267 270 259 254 259 250 247 252 253 249 250 245 240 246 257 259 258 257 251 246 244 240
195 188 194 210 210 215 216 214 216 222 234 244 253 267 256 256 260 264 267 271 273 276 280 281 278 280 282 280 269 251 256 258 257 253 248 252 257 255 252 251 249 247 246
189 208 215 217 208 209 217 226 226 231 239 242 246 250 250 253 257 261 264 271 280 286 277 269 268 276 287 292 270 260 258 265 264 254 246 245 254 256 253 252 250 251 249
198 222 235 235 224 223 227 233 238 240 243 244 244 246 252 255 257 258 262 268 277 279 276 271 265 278 284 287 277 265 272 283 281 273 260 246 247 250 251 251 251 251 247
216 222 228 233 236 233 232 235 239 243 244 249 250 249 248 249 250 254 257 263 276 278 275 267 267 279 286 283 274 274 277 286 290 286 270 251 248 251 253 249 252 252 252
Height
1522 1523 1523 1523 1523 1523 1523 1523 1523 1523 1522 1521 1521 1521 1520 1520 1519 1519 1518 1518 1518 1517 1517 1517 1517 1517 1517 1517 1517 1517 1517 1517 1517 1517 1517 1516 1516 1515 1514 1514 1514 1513 1512
1520 1520 1521 1521 1521 1520 1520 1520 1520 1520 1520 1519 1519 1519 1518 1518 1517 1517 1517 1516 1516 1516 1516 1515 1515 1515 1515 1515 1515 1515 1515 1515 1515 1514 1514 1514 1514 1513 1513 1512 1512 1511 1511
1517 1518 1518 1518 1518 1518 1518 1518 1518 1518 1517 1517 1517 1516 1516 1515 1515 1515 1514 1514 1514 1514 1514 1513 1513 1513 1513 1513 1513 1513 1513 1513 1513 1512 1512 1512 1512 1511 1511 1510 1510 1509 1509
1514 1515 1515 1515 1515 1515 1515 1515 1515 1515 1515 1514 1514 1514 1513 1513 1512 1512 1512 1512 1512 1512 1511 1511 1511 1511 1510 1510 1510 1510 1510 1510 1510 1510 1510 1509 1509 1509 1509 1508 1508 1507 1507
1511 1512 1512 1513 1513 1513 1513 1512 1512 1512 1512 1512 1511 1511 1511 1510 1510 1510 1509 1509 1509 1509 1509 1508 1508 1508 1508 1508 1508 1508 1508 1508 1507 1507 1507 1507 1506 1506 1506 1506 1505 1505 1505
1509 1509 1509 1510 1510 1510 1510 1510 1509 1509 1509 1509 1509 1508 1508 1507 1507 1507 1507 1506 1506 1506 1505 1505 1505 1505 1504 1504 1505 1505 1505 1505 1505 1504 1504 1504 1503 1504 1503 1503 1503 1502 1502
1506 1506 1507 1507 1507 1507 1507 1507 1506 1506 1506 1506 1506 1505 1504 1504 1504 1504 1503 1503 1502 1502 1502 1502 1502 1501 1501 1501 1501 1501 1502 1502 1502 1502 1501 1501 1501 1501 1501 1501 1500 1500 1500
1503 1503 1503 1504 1504 1504 1504 1503 1503 1503 1503 1502 1502 1501 1501 1500 1500 1500 1500 1499 1499 1499 1499 1498 1498 1498 1498 1498 1498 1498 1498 1498 1499 1499 1499 1499 1499 1499 1498 1498 1498 1498 1498
1499 1500 1500 1501 1501 1501 1500 1500 1500 1500 1499 1499 1498 1498 1497 1497 1496 1496 1496 1496 1495 1495 1495 1495 1494 1494 1494 1494 1494 1494 1494 1495 1495 1495 1495 1496 1496 1496 1496 1496 1495 1495 1494
1496 1497 1497 1498 1497 1497 1497 1497 1497 1497 1496 1496 1495 1494 1494 1493 1493 1493 1492 1492 1492 1491 1491 1491 1491 1490 1490 1490 1490 1490 1490 1490 1491 1491 1492 1492 1492 1492 1492 1492 1492 1492 1492
1493 1494 1494 1494 1494 1494 1494 1494 1494 1493 1493 1492 1492 1491 1490 1489 1489 1489 1489 1489 1488 1487 1487 1486 1486 1486 1486 1486 1486 1486 1486 1487 1486 1487 1487 1488 1488 1488 1488 1488 1489 1489 1489
1491 1491 1491 1491 1491 1491 1491 1491 1490 1490 1489 1488 1488 1487 1487 1486 1486 1485 1485 1485 1485 1484 1483 1483 1482 1482 1482 1482 1482 1482 1482 1482 1482 1482 1482 1483 1483 1483 1484 1484 1485 1485 1486
1487 1487 1487 1488 1488 1487 1487 1487 1487 1486 1486 1485 1484 1484 1483 1483 1483 1482 1482 1481 1481 1480 1479 1479 1478 1478 1478 1477 1477 1477 1478 1478 1478 1478 1478 1478 1479 1479 1480 1480 1480 1481 1482
1484 1484 1484 1484 1484 1484 1484 1484 1483 1482 1482 1482 1481 1481 1480 1480 1479 1479 1478 1477 1477 1476 1475 1475 1474 1474 1474 1473 1473 1473 1473 1473 1474 1474 1474 1474 1475 1475 1475 1475 1476 1476 1476
1481 1481 1481 1481 1481 1480 1480 1480 1480 1480 1479 1479 1479 1478 1478 1477 1477 1476 1475 1474 1473 1472 1472 1471 1470 1470 1469 1469 1469 1469 1469 1469 1469 1469 1469 1469 1470 1470 1470 1470 1470 1471 1471
1478 1478 1478 1478 1477 1477 1477 1477 1477 1477 1477 1477 1476 1476 1475 1475 1474 1473 1472 1471 1469 1468 1467 1466 1465 1465 1465 1465 1465 1465 1465 1465 1465 1465 1465 1465 1465 1465 1465 1466 1466 1465 1465
1475 1475 1474 1474 1474 1474 1473 1473 1473 1473 1473 1473 1473 1472 1472 1471 1470 1469 1468 1467 1466 1465 1463 1462 1461 1461 1461 1460 1460 1460 1460 1460 1460 1460 1460 1460 1460 1460 1460 1460 1460 1460 1460
1472 1472 1471 1471 1471 1470 1470 1470 1469 1469 1468 1468 1468 1468 1468 1467 1466 1465 1464 1463 1461 1460 1459 1458 1457 1457 1456 1456 1456 1456 1456 1456 1456 1456 1455 1455 1455 1455 1455 1455 1455 1455 1455
1469 1468 1468 1467 1467 1467 1467 1466 1466 1466 1465 1465 1464 1464 1464 1463 1462 1461 1460 1459 1457 1456 1455 1454 1453 1452 1452 1452 1451 1451 1451 1451 1451 1451 1450 1450 1450 1450 1450 1450 1450 1450 1450
1466 1465 1465 1464 1464 1463 1463 1463 1462 1462 1462 1461 1460 1460 1459 1459 1457 1456 1455 1454 1453 1452 1451 1450 1449 1448 1447 1447 1447 1446 1446 1446 1446 1446 1445 1445 1445 1445 1445 1445 1445 1445 1445
1463 1462 1462 1461 1460 1460 1460 1459 1459 1459 1458 1457 1457 1456 1455 1454 1453 1453 1452 1450 1449 1448 1447 1446 1445 1444 1443 1442 1442 1441 1441 1441 1441 1441 1440 1440 1440 1440 1440 1440 1440 1440 1440
1460 1459 1458 1458 1457 1457 1456 1456 1455 1455 1454 1454 1453 1453 1452 1451 1450 1449 1448 1447 1446 1445 1444 1442 1441 1440 1439 1438 1438 1437 1437 1436 1436 1436 1435 1435 1435 1435 1435 1435 1435 1435 1434
1456 1456 1455 1455 1454 1454 1453 1452 1452 1451 1450 1450 1449 1449 1448 1447 1446 1445 1444 1443 1442 1441 1440 1439 1438 1436 1436 1435 1434 1433 1433 1432 1432 1431 1431 1430 1430 1430 1429 1429 1429 1429 1429
1454 1453 1452 1451 1450 1450 1449 1449 1448 1448 1447 1446 1446 1445 1444 1443 1442 1441 1441 1439 1438 1437 1436 1435 1434 1433 1432 1431 1430 1429 1429 1428 1427 1427 1426 1425 1425 1424 1424 1424 1424 1424 1424
1450 1450 1449 1448 1447 1446 1446 1445 1445 1444 1444 1443 1442 1441 1440 1439 1439 1438 1437 1436 1435 1434 1432 1431 1430 1429 1428 1427 1426 1425 1424 1424 1423 1422 1421 1421 1420 1419 1419 1419 1418 1418 1418
1447 1446 1445 1444 1444 1443 1442 1441 1441 1440 1440 1439 1438 1437 1437 1436 1435 1434 1433 1432 1431 1430 1428 1427 1426 1425 1424 1423 1422 1421 1420 1419 1418 1418 1417 1416 1415 1415 1414 1414 1414 1414 1414